Location: Rock Island IL
(41.5000°N, 90.5500°W)
Time: 19:45:34
(UTC-06:00)

ISS - Visible Passes

Search period start: 23 February 2018 00:00
Search period end: 05 March 2018 00:00
Orbit: 402 x 407 km, 51.6° (Epoch: 24 February)

Date Brightness Start Highest point End Pass type
(mag) Time Alt. Az. Time Alt. Az. Time Alt. Az.
26 Feb -1.5 05:32:28 10° S 05:35:06 23° SE 05:37:45 10° E visible
27 Feb -0.8 04:41:43 10° SSE 04:43:05 12° SE 04:44:26 10° ESE visible
28 Feb -3.2 05:24:38 17° SW 05:26:55 55° SE 05:30:08 10° ENE visible
01 Mar -2.1 04:34:55 28° SE 04:34:55 28° SE 04:37:38 10° ENE visible
02 Mar -3.8 05:17:43 36° W 05:18:49 62° NNW 05:22:04 10° NE visible
03 Mar -2.2 04:27:43 35° ENE 04:27:43 35° ENE 04:29:48 10° ENE visible
03 Mar -2.2 06:00:37 10° WNW 06:03:17 22° NNW 06:05:56 10° NE visible
04 Mar -2.8 05:10:16 29° NW 05:10:48 31° NNW 05:13:48 10° NE visible
